Weather History for Price, UT

Change the Weather History Date:

Tuesday, August 27, 2013

  Actual Average Record
Temperature  
Mean Temperature 65 °F -  
Max Temperature 75 °F 80 °F 95 °F (2001)
Min Temperature 57 °F 54 °F 41 °F (1992)
Growing Degree Days 15 (Base 50)    
Moisture  
Dew Point 57 °F    
Average Humidity 79    
Maximum Humidity 100    
Minimum Humidity 53    
Precipitation  
Precipitation 0.00 in - - ()
Sea Level Pressure  
Sea Level Pressure 30.13 in    
Wind  
Wind Speed 2 mph (WNW)    
Max Wind Speed 8 mph    
Max Gust Speed -    
Visibility 9 miles    
Events Fog    
Averages and records for this station are not official NWS values.
T = Trace of Precipitation, MM = Missing Value Source: NWS Daily Summary

Daily Weather History Graph

Daily Weather History Graph

Search for Another Location

Airport:

Trip Planner

Search our weather history database for the weather conditions in past years. The results will help you decide how hot, cold, wet, or windy it might be!

Date:

Astronomy

Aug. 27, 2013 Rise Set
Actual Time 6:46 AM MDT 8:01 PM MDT
Civil Twilight 6:18 AM MDT 8:29 PM MDT
Nautical Twilight 5:45 AM MDT 9:02 PM MDT
Astronomical Twilight 5:10 AM MDT 9:37 PM MDT
Moon 11:58 PM MDT (8/27) 1:46 PM MDT (8/27)
Length of Visible Light 14h 10m
Length of Day
13h 14m
Waning Gibbous, 56% of the Moon is Illuminated
Aug 27
Waning Gibbous
Aug 28
Last Quarter
Sep 5
New
Sep 12
First Quarter
Sep 19
Full

Hourly Weather History & Observations

Time (MDT) Temp. Dew Point Humidity Pressure Visibility Wind Dir Wind Speed Gust Speed Precip Events Conditions
12:53 AM 57.9 °F 57.0 °F 97% 30.14 in 10.0 mi WNW 4.6 mph - 0.00 in   Mostly Cloudy
1:53 AM 59.0 °F 57.0 °F 93% 30.13 in 10.0 mi West 3.5 mph - N/A   Overcast
2:53 AM 60.1 °F 57.0 °F 90% 30.12 in 10.0 mi Calm Calm - N/A   Overcast
3:53 AM 59.0 °F 57.0 °F 93% 30.12 in 10.0 mi West 3.5 mph - N/A   Scattered Clouds
4:53 AM 59.0 °F 55.9 °F 90% 30.11 in 10.0 mi North 3.5 mph - N/A   Clear
5:53 AM 59.0 °F 55.9 °F 90% 30.11 in 10.0 mi Calm Calm - N/A   Mostly Cloudy
6:53 AM 59.0 °F 57.0 °F 93% 30.12 in 10.0 mi Calm Calm - N/A   Overcast
7:13 AM 59.0 °F 57.2 °F 94% 30.29 in 2.0 mi West 3.5 mph - N/A   Overcast
7:15 AM 59.0 °F 57.2 °F 94% 30.29 in 0.8 mi WSW 4.6 mph - N/A   Overcast
7:27 AM 59.0 °F 57.2 °F 94% 30.29 in 0.5 mi Calm Calm - N/A Fog Fog
7:31 AM 57.2 °F 57.2 °F 100% 30.29 in 2.0 mi Calm Calm - N/A   Overcast
7:42 AM 59.0 °F 57.2 °F 94% 30.29 in 8.0 mi Calm Calm - N/A   Overcast
7:53 AM 59.0 °F 57.0 °F 93% 30.13 in 8.0 mi Calm Calm - N/A   Overcast
8:01 AM 59.0 °F 57.2 °F 94% 30.29 in 10.0 mi Calm Calm - N/A   Overcast
8:53 AM 62.1 °F 57.9 °F 86% 30.11 in 10.0 mi Calm Calm - N/A   Clear
9:25 AM 62.6 °F 57.2 °F 82% 30.28 in 10.0 mi Calm Calm - N/A   Mostly Cloudy
9:53 AM 63.0 °F 57.9 °F 84% 30.13 in 10.0 mi Calm Calm - N/A   Overcast
10:20 AM 64.4 °F 57.2 °F 77% 30.29 in 10.0 mi Calm Calm - N/A   Scattered Clouds
10:53 AM 66.0 °F 57.0 °F 73% 30.12 in 10.0 mi Calm Calm - N/A   Scattered Clouds
11:53 AM 66.0 °F 55.9 °F 70% 30.13 in 10.0 mi Calm Calm - N/A   Overcast
12:53 PM 66.9 °F 57.0 °F 70% 30.13 in 10.0 mi West 4.6 mph - N/A   Overcast
1:53 PM 70.0 °F 57.0 °F 63% 30.10 in 10.0 mi Calm Calm - N/A   Overcast
2:53 PM 72.0 °F 57.0 °F 59% 30.07 in 10.0 mi Variable 3.5 mph - N/A   Overcast
3:53 PM 73.9 °F 55.9 °F 53% 30.03 in 10.0 mi SSE 8.1 mph - N/A   Partly Cloudy
4:53 PM 73.9 °F 55.9 °F 53% 30.01 in 10.0 mi Variable 5.8 mph - N/A   Mostly Cloudy
5:53 PM 73.9 °F 55.9 °F 53% 30.01 in 10.0 mi South 4.6 mph - N/A   Clear
6:53 PM 73.9 °F 55.9 °F 53% 29.99 in 10.0 mi Variable 4.6 mph - N/A   Clear
7:53 PM 72.0 °F 57.9 °F 61% 30.01 in 10.0 mi Calm Calm - N/A   Scattered Clouds
8:53 PM 71.1 °F 57.9 °F 63% 30.01 in 10.0 mi Calm Calm - N/A   Clear
9:53 PM 66.9 °F 57.9 °F 73% 30.03 in 10.0 mi NNE 5.8 mph - N/A   Clear
10:53 PM 64.9 °F 57.9 °F 78% 30.02 in 10.0 mi North 8.1 mph - N/A   Clear
11:53 PM 64.0 °F 57.0 °F 78% 30.02 in 10.0 mi NNE 6.9 mph - N/A   Clear